Lakeland Region, FL

5:13 PM EDT on April 20, 2018 (GMT -0400)
Lakeland Linder Regional

Weather History for KLAL - October, 2013

Change the Weather History Date:

Friday, October 11, 2013

  Actual Average Record
Temperature  
Mean Temperature 74 °F -  
Max Temperature 84 °F 81 °F 93 °F (2009)
Min Temperature 64 °F 66 °F 57 °F (1996)
Cooling Degree Days 9    
Growing Degree Days 24 (Base 50)    
Moisture  
Dew Point 63 °F    
Average Humidity 78    
Maximum Humidity 100    
Minimum Humidity 42    
Precipitation  
Precipitation 0.00 in - - ()
Sea Level Pressure  
Sea Level Pressure 30.01 in    
Wind  
Wind Speed 1 mph (NNW)    
Max Wind Speed 7 mph    
Max Gust Speed -    
Visibility 11 miles    
Events      
Averages and records for this station are not official NWS values.
T = Trace of Precipitation, MM = Missing Value Source: NWS Daily Summary

Daily Weather History Graph

Daily Weather History Graph

Search for Another Location

Airport or City:

Astronomy

Oct. 11, 2013 Rise Set
Actual Time 7:26 AM EDT 7:02 PM EDT
Civil Twilight 7:02 AM EDT 7:26 PM EDT
Nautical Twilight 6:35 AM EDT 7:53 PM EDT
Astronomical Twilight 6:08 AM EDT 8:20 PM EDT
Moon 1:51 PM EDT (10/11) No Moon Set
Length of Visible Light 12h 23m
Length of Day
11h 36m
Waxing Crescent, 47% of the Moon is Illuminated
Oct 11
Waxing Crescent
Oct 11
First Quarter
Oct 18
Full
Oct 26
Last Quarter
Nov 3
New

Hourly Weather History & Observations

Time (EDT) Temp. Heat Index Dew Point Humidity Pressure Visibility Wind Dir Wind Speed Gust Speed Precip Events Conditions
12:15 AM 69.8 °F - 64.4 °F 83% 30.03 in 10.0 mi Calm Calm - N/A   Clear
12:35 AM 69.8 °F - 62.6 °F 78% 30.02 in 10.0 mi SSE 3.5 mph - N/A   Clear
12:55 AM 69.8 °F - 64.4 °F 83% 30.02 in 10.0 mi SE 3.5 mph - N/A   Clear
1:15 AM 68.0 °F - 64.4 °F 88% 30.01 in 10.0 mi Calm Calm - N/A   Clear
1:35 AM 68.0 °F - 64.4 °F 88% 30.01 in 10.0 mi Calm Calm - N/A   Clear
1:55 AM 68.0 °F - 64.4 °F 88% 30.01 in 10.0 mi Calm Calm - N/A   Clear
2:15 AM 68.0 °F - 64.4 °F 88% 30.00 in 10.0 mi Calm Calm - N/A   Clear
2:55 AM 68.0 °F - 64.4 °F 88% 29.99 in 10.0 mi Calm Calm - N/A   Clear
3:15 AM 66.2 °F - 64.4 °F 94% 29.99 in 10.0 mi Calm Calm - N/A   Clear
3:35 AM 66.2 °F - 64.4 °F 94% 29.99 in 10.0 mi Calm Calm - N/A   Clear
3:55 AM 66.2 °F - 64.4 °F 94% 29.99 in 10.0 mi Calm Calm - N/A   Clear
4:15 AM 64.4 °F - 64.4 °F 100% 29.99 in 10.0 mi Calm Calm - N/A   Clear
4:35 AM 64.4 °F - 64.4 °F 100% 29.99 in 10.0 mi Calm Calm - N/A   Clear
4:55 AM 64.4 °F - 62.6 °F 94% 29.99 in 10.0 mi Calm Calm - N/A   Clear
5:15 AM 64.4 °F - 62.6 °F 94% 30.00 in 10.0 mi Calm Calm - N/A   Clear
5:35 AM 64.4 °F - 62.6 °F 94% 30.00 in 10.0 mi Calm Calm - N/A   Clear
5:50 AM 66.2 °F - 64.4 °F 94% 30.01 in 10.0 mi Calm Calm - N/A   Clear
5:55 AM 64.4 °F - 64.4 °F 100% 30.01 in 10.0 mi Calm Calm - N/A   Clear
6:15 AM 64.4 °F - 64.4 °F 100% 30.01 in 10.0 mi Calm Calm - N/A   Clear
6:35 AM 64.4 °F - 62.6 °F 94% 30.01 in 10.0 mi Calm Calm - N/A   Clear
6:50 AM 64.4 °F - 64.4 °F 100% 30.01 in 10.0 mi Calm Calm - N/A   Clear
7:50 AM 64.4 °F - 64.4 °F 100% 30.03 in 10.0 mi Calm Calm - N/A   Clear
8:50 AM 69.8 °F - 68.0 °F 94% 30.05 in 10.0 mi Calm Calm - N/A   Clear
9:50 AM 75.2 °F - 64.4 °F 69% 30.07 in 10.0 mi Calm Calm - N/A   Clear
10:55 AM 80.6 °F 81.8 °F 62.6 °F 54% 30.07 in 15.0 mi Calm Calm - N/A   Clear
11:50 AM 82.4 °F 82.9 °F 60.8 °F 48% 30.06 in 15.0 mi Calm Calm - N/A   Partly Cloudy
12:50 PM 84.2 °F 84.4 °F 60.8 °F 45% 30.04 in 15.0 mi Calm Calm - N/A   Scattered Clouds
1:54 PM 84.2 °F 83.8 °F 59.0 °F 42% 30.01 in 20.0 mi Calm Calm - N/A   Mostly Cloudy
2:50 PM 84.2 °F 83.8 °F 59.0 °F 42% 29.99 in 15.0 mi NNE 4.6 mph - N/A   Mostly Cloudy
3:53 PM 84.2 °F 83.8 °F 59.0 °F 42% 29.98 in 15.0 mi WNW 4.6 mph - N/A   Scattered Clouds
4:54 PM 82.4 °F 82.5 °F 59.0 °F 45% 29.97 in 15.0 mi Calm Calm - N/A   Partly Cloudy
5:50 PM 84.2 °F 84.4 °F 60.8 °F 45% 29.97 in 15.0 mi NNW 5.8 mph - N/A   Partly Cloudy
6:50 PM 80.6 °F 81.8 °F 62.6 °F 54% 29.97 in 15.0 mi NNW 6.9 mph - N/A   Partly Cloudy
7:50 PM 75.2 °F - 62.6 °F 65% 29.98 in 12.0 mi NNW 4.6 mph - N/A   Clear
8:50 PM 73.4 °F - 60.8 °F 65% 30.00 in 12.0 mi NNW 4.6 mph - N/A   Clear
9:50 PM 71.6 °F - 60.8 °F 69% 30.01 in 12.0 mi NNW 4.6 mph - N/A   Clear
10:55 PM 68.0 °F - 60.8 °F 78% 30.02 in 10.0 mi North 5.8 mph - N/A   Clear
11:15 PM 68.0 °F - 60.8 °F 78% 30.02 in 10.0 mi North 3.5 mph - N/A   Clear
11:35 PM 68.0 °F - 60.8 °F 78% 30.02 in 10.0 mi Calm Calm - N/A   Clear
11:55 PM 68.0 °F - 60.8 °F 78% 30.02 in 10.0 mi Calm Calm - N/A   Clear